Home > Weather > Biarritz > Past weeks

Flag for France Past Weather in Biarritz, Aquitaine, France — Yesterday and Last 2 Weeks

Now
64 °F

Partly sunny.


Feels Like: 64 °F
Forecast: 56 / 70 °F
Wind: 6 mph from Northwest

Location: Biarritz Airport

Current Time: May 25, 2016 at 6:57:40 PM

Latest Report: May 25, 2016 at 6:30 PM


Visibility: N/A

Pressure: 29.89 "Hg

Humidity: 78%

Dew Point: 57 °F

Location of BiarritzLocation

Past Weather in Biarritz — Graph

°F

Biarritz Temperature Yesterday

Maximum temperature yesterday: 70 °F (at 2:30 PM)
Minimum temperature yesterday: 48 °F (at 3:00 AM)
Average temperature yesterday: 60 °F

High & Low Weather Summary for the Past Weeks

 TemperatureHumidityPressure
High84 °F (May 21, 12:30 PM)100% (May 15, 3:00 AM)30.30 "Hg (May 15, 3:00 AM)
Low46 °F (May 12, 6:30 AM)34% (May 10, 6:30 PM)29.59 "Hg (May 10, 7:30 PM)
Average60 °F77%30.00 "Hg
* Reported May 10 6:00 PM — May 25 6:00 PM, Biarritz, Weather by CustomWeather, © 2016

Note: Actual official high and low records may vary slightly from our data, if they occured in-between our weather recording intervals... More about our weather records

Advertising

Biarritz Weather History for the Previous 24 Hours

Scroll right to see more
 ConditionsComfort  
Time TempWeatherWind HumidityBarometerVisibility
6:00 PM
Wed, May 25
64 °FPartly sunny.5 mph73%29.86 "HgN/A
5:30 PM66 °FPartly sunny.5 mph68%29.86 "HgN/A
5:00 PM68 °FSunny.2 mph64%29.86 "Hg10 mi
4:30 PM64 °FBroken clouds.3 mph73%29.86 "HgN/A
4:00 PM63 °FLight rain. Broken clouds.6 mph77%29.86 "HgN/A
3:30 PM64 °FMild.7 mph68%29.86 "HgN/A
3:00 PM68 °FMild.8 mph60%29.86 "HgN/A
2:30 PM68 °FPassing clouds.9 mph64%29.86 "HgN/A
2:00 PM68 °FPartly sunny.8 mph60%29.86 "HgN/A
1:30 PM66 °FMostly cloudy.8 mph64%29.86 "HgN/A
1:00 PM64 °FOvercast.8 mph68%29.86 "HgN/A
12:30 PM64 °FSunny.9 mph68%29.83 "Hg10 mi
12:00 PM66 °FPassing clouds.9 mph56%29.83 "HgN/A
11:30 AM64 °FPassing clouds.7 mph73%29.83 "HgN/A
11:00 AM64 °FPassing clouds.6 mph68%29.83 "HgN/A
10:30 AM63 °FPassing clouds.7 mph77%29.83 "HgN/A
10:00 AM63 °FPassing clouds.5 mph88%29.83 "HgN/A
9:30 AM61 °FBroken clouds.6 mph88%29.83 "HgN/A
9:00 AM61 °FSunny.2 mph88%29.80 "Hg10 mi
8:30 AM59 °FSunny.6 mph94%29.80 "Hg10 mi
8:00 AM59 °FSunny.2 mph94%29.80 "Hg10 mi
7:30 AM57 °FClear.2 mph94%29.80 "Hg10 mi
7:00 AM57 °FClear.3 mph94%29.77 "Hg10 mi
6:30 AM57 °FClear.2 mph94%29.77 "Hg10 mi
6:00 AM57 °FClear.2 mph94%29.77 "Hg10 mi
5:30 AM57 °FClear.1 mph94%29.77 "Hg10 mi
5:00 AM57 °FClear.No wind94%29.77 "Hg10 mi
4:30 AM57 °FClear.2 mph94%29.77 "Hg10 mi
4:00 AM59 °FClear.No wind88%29.77 "Hg10 mi
3:30 AM59 °FPassing clouds.3 mph94%29.77 "HgN/A
3:00 AM59 °FPassing clouds.3 mph94%29.77 "HgN/A
2:30 AM59 °FClear.7 mph94%29.80 "Hg10 mi
2:00 AM61 °FCool.1 mph88%29.80 "HgN/A
1:30 AM61 °FCool.7 mph83%29.80 "HgN/A
1:00 AM61 °FCool.No wind77%29.80 "HgN/A
12:30 AM61 °FCool.6 mph72%29.77 "HgN/A
12:00 AM63 °FPassing clouds.3 mph73%29.80 "HgN/A
11:30 PM
Tue, May 24
64 °FMild.3 mph60%29.77 "HgN/A
11:00 PM64 °FMild.7 mph60%29.77 "HgN/A
10:30 PM66 °FMild.8 mph60%29.74 "HgN/A
10:00 PM64 °FMild.8 mph64%29.71 "HgN/A
9:30 PM66 °FSunny.9 mph60%29.71 "Hg10 mi
9:00 PM66 °FPassing clouds.9 mph60%29.71 "HgN/A
8:30 PM68 °FPassing clouds.12 mph53%29.71 "HgN/A
8:00 PM68 °FSunny.10 mph56%29.74 "Hg10 mi
7:30 PM70 °FSunny.13 mph50%29.74 "Hg10 mi
7:00 PM70 °FSunny.15 mph50%29.74 "Hg10 mi
6:30 PM70 °FSunny.16 mph50%29.74 "Hg10 mi
6:00 PM70 °FSunny.14 mph53%29.74 "Hg10 mi
Weather by CustomWeather, © 2016

See weather overviewHow to use our weather pages